Weather History for Grand Marais, MN

Change the Weather History Date:

Saturday, July 27, 2013

  Actual Average (KCKC) Record (KCKC)
Temperature  
Mean Temperature 52 °F -  
Max Temperature 55 °F 71 °F 80 °F (2006)
Min Temperature 50 °F 51 °F 39 °F (2005)
Degree Days  
Heating Degree Days 12    
Growing Degree Days 2 (Base 50)    
Moisture  
Dew Point 46 °F    
Average Humidity 78    
Maximum Humidity 93    
Minimum Humidity 64    
Precipitation  
Precipitation 0.00 in - - ()
Sea Level Pressure  
Sea Level Pressure 29.89 in    
Wind  
Wind Speed 4 mph (NNW)    
Max Wind Speed 14 mph    
Max Gust Speed 22 mph    
Averages and records for this station are not official NWS values.
T = Trace of Precipitation, MM = Missing Value Source: NWS Daily Summary

Daily Weather History Graph

Daily Weather History Graph

Search for Another Location

Airport:

Trip Planner

Search our weather history database for the weather conditions in past years. The results will help you decide how hot, cold, wet, or windy it might be!

Date:

Astronomy

Jul. 27, 2013 Rise Set
Actual Time 5:32 AM CDT 8:42 PM CDT
Civil Twilight 4:55 AM CDT 9:19 PM CDT
Nautical Twilight 4:07 AM CDT 10:07 PM CDT
Astronomical Twilight 3:06 AM CDT 11:06 PM CDT
Moon 10:58 PM CDT 11:43 AM CDT
Length of Visible Light 16h 23m
Length of Day
15h 10m
Waning Gibbous, 70% of the Moon is Illuminated
Jul 27
Waning Gibbous
Jul 29
Last Quarter
Aug 6
New
Aug 14
First Quarter
Aug 20
Full

Hourly Weather History & Observations

Time (CDT) Temp. Dew Point Humidity Pressure Visibility Wind Dir Wind Speed Gust Speed Precip Events Conditions
12:56 AM 52.0 °F 44.1 °F 74% 29.96 in - NNW 13.8 mph 21.9 mph N/A   Unknown
1:56 AM 52.0 °F 45.0 °F 77% 29.94 in - Calm Calm - N/A   Unknown
2:56 AM 51.1 °F 45.0 °F 80% 29.93 in - Variable 3.5 mph - N/A   Unknown
3:56 AM 50.0 °F 45.0 °F 83% 29.91 in - Variable 3.5 mph - N/A   Unknown
4:56 AM 51.1 °F 45.0 °F 80% 29.90 in - Calm Calm - N/A   Unknown
5:56 AM 50.0 °F 45.0 °F 83% 29.90 in - SSW 4.6 mph - N/A   Unknown
6:56 AM 52.0 °F 46.0 °F 80% 29.89 in - Calm Calm - N/A   Unknown
7:56 AM 54.0 °F 44.1 °F 69% 29.87 in - Calm Calm - N/A   Unknown
8:56 AM 55.9 °F 45.0 °F 67% 29.86 in - Calm Calm - N/A   Unknown
9:56 AM 55.0 °F 45.0 °F 69% 29.84 in - NNW 4.6 mph - N/A   Unknown
10:56 AM 55.0 °F 43.0 °F 64% 29.85 in - NNW 8.1 mph - N/A   Unknown
11:56 AM 54.0 °F 44.1 °F 69% 29.86 in - Calm Calm - N/A   Unknown
12:56 PM 55.0 °F 45.0 °F 69% 29.85 in - Variable 3.5 mph - N/A   Unknown
1:56 PM 54.0 °F 46.9 °F 77% 29.86 in - Calm Calm - N/A   Unknown
2:56 PM 53.1 °F 46.0 °F 77% 29.86 in - Calm Calm - N/A   Unknown
3:56 PM 52.0 °F 46.0 °F 80% 29.89 in - Calm Calm - N/A   Unknown
4:56 PM 52.0 °F 46.9 °F 83% 29.89 in - Calm Calm - N/A   Unknown
5:56 PM 52.0 °F 46.0 °F 80% 29.90 in - Calm Calm - N/A   Unknown
6:56 PM 52.0 °F 46.9 °F 83% 29.90 in - Calm Calm - N/A   Unknown
7:56 PM 51.1 °F 48.9 °F 92% 29.90 in - Calm Calm - N/A   Unknown
8:56 PM 51.1 °F 48.0 °F 89% 29.90 in - Calm Calm - N/A   Unknown
9:56 PM 50.0 °F 48.0 °F 93% 29.90 in - Calm Calm - N/A   Unknown
10:56 PM 52.0 °F 48.9 °F 89% 29.89 in - Calm Calm - N/A   Unknown
11:56 PM 55.9 °F 48.9 °F 77% 29.89 in - East 4.6 mph - N/A   Unknown